• Processing (Info)

  • MPEC 2022-R26 : 2022 QC36

    The following Minor Planet Electronic Circular may be linked-to from your own Web pages, but must not otherwise be redistributed electronically.

    A form allowing access to any MPEC is at the bottom of this page.


    Read MPEC 2022-R25 Read MPEC 2022-R27


    M.P.E.C. 2022-R26                             Issued 2022 September 2, 23:39 UT
    
         The Minor Planet Electronic Circulars contain information on unusual
             minor planets and routine data on comets.  They are published
        on behalf of Division F of the International Astronomical Union by the
              Minor Planet Center, Smithsonian Astrophysical Observatory,
                              Cambridge, MA 02138, U.S.A.
    
                 Prepared using the Tamkin Foundation Computer Network
    
                                  MPC@CFA.HARVARD.EDU
                URL https://www.minorplanetcenter.net/    ISSN 1523-6714
    
                                    2022 QC36                                
    
    
    Observations:
         K22Q36C  C2022 08 05.42889721 52 51.145-42 05 15.77         21.43GVER026F52
         K22Q36C  C2022 08 05.43723721 52 48.588-42 04 45.41         21.40GVER026F52
         K22Q36C  C2022 08 05.45392721 52 43.463-42 03 42.87         22.06GVER026F52
         K22Q36C  C2022 08 22.31789620 36 13.484-16 58 22.16         21.82GVER026F51
         K22Q36C  C2022 08 22.35142520 36 05.513-16 54 53.81         20.81GVER026F51
         K22Q36C  C2022 08 25.34441720 25 42.598-11 47 47.05         21.09GVER026F52
         K22Q36C  C2022 08 25.35656420 25 40.034-11 46 33.59         21.74GVER026F52
         K22Q36C  C2022 08 25.36879220 25 37.480-11 45 19.67         21.96GVER026F52
         K22Q36C  C2022 08 25.38100520 25 34.860-11 44 05.18         21.20GVER026F52
         K22Q36C* C2022 08 31.30883920 08 59.107-02 20 47.07         21.55wUER026F52
         K22Q36C  C2022 08 31.32039020 08 57.290-02 19 46.16         21.47wUER026F52
         K22Q36C  C2022 08 31.33195820 08 55.473-02 18 44.90         21.67wUER026F52
         K22Q36C  C2022 08 31.41643720 08 42.337-02 11 19.69         21.30GVER026F52
         K22Q36C  C2022 08 31.41724120 08 42.225-02 11 15.74         21.27GVER026F52
         K22Q36C  C2022 09 01.30155220 06 42.327-00 54 48.30         21.64GVER026F51
         K22Q36C  C2022 09 01.30221320 06 42.224-00 54 44.79         21.19GVER026F51
         K22Q36C ^C2022 09 02.25225520 04 39.684+00 24 59.10         22.49GVER026568
         K22Q36C ^C2022 09 02.25323220 04 39.551+00 25 03.87         22.40GVER026568
         K22Q36C ^C2022 09 02.25422220 04 39.410+00 25 08.83         22.66GVER026568
         K22Q36C ^C2022 09 02.25521020 04 39.277+00 25 13.64         22.70GVER026568
    
    Observer details:
    568 Mauna Kea.  Observers R. Wainscoat, L. Wells, E. Bertin.  Measurers R.
        Weryk, R. Wainscoat.  3.6-m Canada-France-Hawaii Telescope + CCD.
    F51 Pan-STARRS 1, Haleakala.  Observers J. Bulger, K. Chambers, T. Lowe, A.
        Schultz, I. Smith.  Measurers S. Chastel, J. Fairlamb, M. Huber, Y.
        Ramanjooloo, R. Wainscoat, R. Weryk.  1.8-m Ritchey-Chretien + CCD.
    F52 Pan-STARRS 2, Haleakala.  Observers J. Bulger, K. Chambers, T. Dukes, T.
        Lowe, A. Schultz, I. Smith.  Measurers S. Chastel, J. Fairlamb, M. Huber,
        Y. Ramanjooloo, R. Wainscoat, R. Weryk, K. Chambers, T. de Boer, H. Gao,
        C.-C. Lin, E. Magnier.  1.8-m Ritchey-Chretien + CCD.
    
    Orbital elements:
    2022 QC36                                                Earth MOID = 0.2016 AU
    Epoch 2022 Aug. 9.0 TT = JDT 2459800.5                  Veres                   
    M 334.44683              (2000.0)            P               Q                  
    n   0.54923657     Peri.   27.71988     +0.96500840     +0.08636608             
    a   1.4767141      Node   324.49684     -0.23628727     +0.69581246             
    e   0.1913644      Incl.   25.23461     +0.11369745     +0.71301186             
    P   1.79           H   23.45          G   0.15           U   6                  
    Residuals in seconds of arc
    220805 F52 (0.5-  0.7+)   220825 F52  0.4+  0.1-    220901 F51  0.1-  0.3+
    220805 F52  0.3-  0.0     220825 F52  0.3-  0.4+    220901 F51 (0.2-  0.5+)
    220805 F52  0.3+  0.0     220831 F52  0.2+  0.0     220902 568  0.0   0.0
    220822 F51  0.0   0.2-    220831 F52  0.0   0.1-    220902 568  0.0   0.0
    220822 F51  0.2-  0.1+    220831 F52  0.0   0.2+    220902 568  0.0   0.0
    220825 F52  0.1+  0.1+    220831 F52  0.1-  0.3+    220902 568  0.0   0.1-
    220825 F52  0.1+  0.0     220831 F52  0.1+  0.0
    
    Ephemeris:
    2022 QC36                a,e,i = 1.48, 0.19, 25                  q = 1.1941
    Date    TT    R. A. (2000) Decl.     Delta      r    Elong.  Phase     V
    2022 08 03    22 04 29.2 -44 26 37   0.2607  1.2457   149.1    24.7    22.2
    ...
    2022 08 18    20 53 24.9 -24 23 36   0.2167  1.2212   163.0    14.1    21.4
    ...
    2022 08 26    20 23 36.7 -10 41 40   0.2219  1.2111   152.0    23.1    21.7
    ...
    2022 09 01    20 07 22.7 -01 20 29   0.2384  1.2050   141.5    31.5    22.1
    2022 09 02    20 05 10.8 +00 04 12   0.2420  1.2041   139.8    32.8    22.2
    2022 09 03    20 03 07.1 +01 26 05   0.2458  1.2032   138.2    34.0    22.2
    ...
    2022 09 09    19 53 27.7 +08 38 35   0.2725  1.1989   129.4    40.5    22.6
    ...
    2022 09 17    19 46 47.0 +15 53 59   0.3151  1.1952   120.2    46.6    23.1
    ...
    2022 10 02    19 48 35.7 +24 32 46   0.4040  1.1952   109.0    52.4    23.8
    
    M. P. C. Staff               (C) Copyright 2022 MPC           M.P.E.C. 2022-R26
    


    Read MPEC 2022-R25 Read MPEC 2022-R27


    MPEC number:

    Enter an MPEC number in one of the following forms:

    • 1997-B01 (the full form)
    • J97B01 (the packed version of the full form)
    • B01 (the abbreviated form)